Etusivu
METAR-TAF:

METAR-TAF

Lentoasemat :

Sveg, Ruotsi

Leveyspiiri: 62-02-52N, Pituuspiiri: 014-25-22E, korkeus merenpinnasta: 359 m

Tämänhetkinen sää

Tämä raportti tehtiin 21 minuuttia sitten, kello 04.20 UTC
Tuuli 3 kn lännestä
Lämpötila 14°C
Kosteus 94%
Ilmanpaine 1007 hPa
Näkyvyys 10 km tai enemmän

METAR: ESND 220420Z AUTO 28003KT 9999 NCD 14/13 Q1007

Aika: 06:41 (04:41 UTC)


TAF: puuttuu

Säähavainnot ja -ennusteet yli 4000 lentoasemalta (METAR- ja TAF-raportit).

Käytössä olevat sääasemat on merkitty karttaan keltaisilla ja punaisilla pisteillä.

Aseta hiiri pisteen päälle nähdäksesi sääaseman nimen.

Klikkaa sitten nähdäksesi säähavainnot ja -ennusteet.

Kartan vaihtaminen: klikkaa mustalla rastilla varustettuja vihreitä pisteitä, niin voit zoomata sisään; viivalla varustettua vihreää pistettä, niin voit zoomata ulos tai vihreitä nuolia, niin pääset viereisille kartoille.


METAR-TAF: